Simultaneous Nadir Overpasses (SNOs) Predictions

Prediction of SNOs between GOES-14 and AQUA Satellite Orbit:

Table of predicted SNOs for the next 14.0 days since TLE Epoch: 5/13/2023
Index Date Time (GOES-14) GOES-14 Lat,Lon AQUA Lat,Lon Distance(km) Time Diff (sec)
1 05/13/2023 08:52:58 0.13,-108.43 -0.27,-106.57 212.17 80
2 05/13/2023 21:13:54 -0.11,-108.39 -0.83,-111.63 369.21 80
3 05/15/2023 21:02:35 -0.12,-108.42 -0.10,-108.22 21.56 80
4 05/17/2023 20:48:36 -0.12,-108.44 0.67,-104.82 412.40 80
5 05/18/2023 09:09:23 0.10,-108.50 0.38,-109.86 154.69 80
6 05/20/2023 08:52:43 0.10,-108.52 -0.33,-106.44 236.01 80
7 05/20/2023 21:13:38 -0.08,-108.46 -0.73,-111.51 346.85 80
8 05/22/2023 21:02:16 -0.08,-108.48 -0.03,-108.08 44.52 80
9 05/24/2023 20:48:14 -0.09,-108.50 0.72,-104.66 436.29 80
10 05/25/2023 09:09:02 0.07,-108.57 0.30,-109.71 129.03 80
